WZZ4D1 LFPG-LSZH

Flight info

Callsign WZZ4D1
Flight time 0h 44m
Altitude 33000
Route BUBLI DCT LUVAL DCT OKIPO DCT PEVIT DCT BLM
Aircraft A20N/M-V/N

Departure

Time 2026-05-05 12:53
Airport Charles de Gaulle International Airport (LFPG)

Arrival

Time 2026-05-05 13:37
Airport Zürich Airport (LSZH)
Time Latitude Longitude Altitude Speed Heading
2026-05-05 12:34 49.00677 2.56054 348 ft 0 kts 355°
2026-05-05 12:45 49.00665 2.56055 348 ft 2 kts 355°
2026-05-05 12:45 49.00650 2.56057 348 ft 2 kts 355°
2026-05-05 12:46 49.00641 2.56058 348 ft 2 kts 349°
2026-05-05 12:46 49.00629 2.56070 348 ft 2 kts 302°
2026-05-05 12:46 49.00624 2.56090 348 ft 0 kts 266°
2026-05-05 12:46 49.00626 2.56099 349 ft 1 kts 258°
2026-05-05 12:47 49.00626 2.56103 349 ft 0 kts 260°
2026-05-05 12:48 49.00624 2.56091 348 ft 3 kts 260°
2026-05-05 12:48 49.00618 2.56043 347 ft 6 kts 259°
2026-05-05 12:49 49.00600 2.55965 346 ft 9 kts 241°
2026-05-05 12:49 49.00569 2.55854 342 ft 14 kts 261°
2026-05-05 12:49 49.00559 2.55678 338 ft 18 kts 265°
2026-05-05 12:49 49.00549 2.55471 334 ft 20 kts 265°
2026-05-05 12:50 49.00452 2.55335 330 ft 21 kts 178°
2026-05-05 12:50 49.00305 2.55393 328 ft 22 kts 164°
2026-05-05 12:50 49.00155 2.55458 326 ft 22 kts 164°
2026-05-05 12:50 49.00000 2.55525 324 ft 23 kts 165°
2026-05-05 12:51 48.99868 2.55627 329 ft 19 kts 130°
2026-05-05 12:51 48.99808 2.55794 331 ft 17 kts 158°
2026-05-05 12:51 48.99715 2.55813 333 ft 4 kts 176°
2026-05-05 12:51 48.99713 2.55813 333 ft 0 kts 176°
2026-05-05 12:52 48.99680 2.55816 333 ft 11 kts 176°
2026-05-05 12:52 48.99602 2.55855 333 ft 11 kts 102°
2026-05-05 12:52 48.99613 2.56085 334 ft 52 kts 85°
2026-05-05 12:52 48.99662 2.57023 344 ft 123 kts 85°
2026-05-05 12:53 48.99741 2.58589 545 ft 161 kts 84°
2026-05-05 12:53 48.99793 2.60273 1256 ft 163 kts 84°
2026-05-05 12:53 48.99821 2.61969 2071 ft 162 kts 83°
2026-05-05 12:53 48.99905 2.63669 2729 ft 165 kts 82°
2026-05-05 12:54 49.00164 2.67419 3785 ft 194 kts 81°
2026-05-05 12:54 49.00336 2.69567 4250 ft 216 kts 82°
2026-05-05 12:54 49.00471 2.71929 4816 ft 234 kts 84°
2026-05-05 12:55 49.00595 2.74459 5393 ft 252 kts 84°
2026-05-05 12:55 49.00727 2.77205 6164 ft 263 kts 86°
2026-05-05 12:55 49.00743 2.79977 7092 ft 268 kts 92°
2026-05-05 12:55 49.00555 2.82768 8003 ft 271 kts 98°
2026-05-05 12:56 49.00206 2.85582 8922 ft 275 kts 101°
2026-05-05 12:56 48.99824 2.88446 9814 ft 279 kts 101°
2026-05-05 12:56 48.99435 2.91337 10566 ft 288 kts 101°
2026-05-05 12:56 48.99024 2.94407 11068 ft 306 kts 101°
2026-05-05 12:57 48.98555 2.97634 11512 ft 324 kts 104°
2026-05-05 12:57 48.97871 3.00984 11916 ft 343 kts 109°
2026-05-05 12:57 48.96923 3.04447 12282 ft 362 kts 113°
2026-05-05 12:57 48.95841 3.07971 12597 ft 380 kts 114°
2026-05-05 12:58 48.94679 3.11693 12934 ft 395 kts 114°
2026-05-05 12:58 48.93491 3.15491 13548 ft 402 kts 114°
2026-05-05 12:58 48.92300 3.19296 14242 ft 406 kts 114°
2026-05-05 12:58 48.91079 3.23212 14926 ft 409 kts 114°
2026-05-05 12:59 48.89864 3.27107 15562 ft 413 kts 115°
2026-05-05 12:59 48.88640 3.31022 16183 ft 417 kts 115°
2026-05-05 12:59 48.87393 3.35007 16783 ft 421 kts 115°
2026-05-05 13:00 48.84845 3.43117 17934 ft 429 kts 116°
2026-05-05 13:00 48.83562 3.47192 18503 ft 432 kts 116°
2026-05-05 13:01 48.80811 3.60267 20168 ft 443 kts 99°
2026-05-05 13:01 48.80462 3.64895 20733 ft 445 kts 97°
2026-05-05 13:01 48.80164 3.69572 21293 ft 447 kts 97°
2026-05-05 13:01 48.79873 3.74227 21812 ft 449 kts 97°
2026-05-05 13:02 48.79575 3.78941 22320 ft 451 kts 97°
2026-05-05 13:02 48.79268 3.83685 22782 ft 453 kts 97°
2026-05-05 13:02 48.78957 3.88417 23231 ft 455 kts 97°
2026-05-05 13:02 48.78636 3.93236 23665 ft 457 kts 97°
2026-05-05 13:03 48.78316 3.97974 24130 ft 458 kts 97°
2026-05-05 13:03 48.77991 4.02773 24738 ft 455 kts 98°
2026-05-05 13:03 48.77668 4.07486 25321 ft 453 kts 98°
2026-05-05 13:03 48.77081 4.12174 25837 ft 450 kts 107°
2026-05-05 13:04 48.76012 4.16568 26349 ft 447 kts 116°
2026-05-05 13:04 48.74495 4.20667 26859 ft 444 kts 124°
2026-05-05 13:04 48.72733 4.24505 27403 ft 442 kts 126°
2026-05-05 13:04 48.70967 4.28251 27928 ft 441 kts 126°
2026-05-05 13:05 48.69178 4.32027 28462 ft 439 kts 126°
2026-05-05 13:05 48.67410 4.35761 28966 ft 438 kts 126°
2026-05-05 13:05 48.65647 4.39489 29478 ft 436 kts 126°
2026-05-05 13:05 48.63904 4.43176 30006 ft 434 kts 127°
2026-05-05 13:06 48.62168 4.46847 30514 ft 432 kts 127°
2026-05-05 13:06 48.60410 4.50562 30990 ft 430 kts 127°
2026-05-05 13:06 48.58680 4.54214 31400 ft 429 kts 127°
2026-05-05 13:06 48.56946 4.57868 31711 ft 430 kts 127°
2026-05-05 13:07 48.55206 4.61531 31970 ft 432 kts 127°
2026-05-05 13:07 48.53459 4.65205 32234 ft 433 kts 127°
2026-05-05 13:07 48.51707 4.68881 32496 ft 434 kts 127°
2026-05-05 13:07 48.49942 4.72583 32733 ft 436 kts 128°
2026-05-05 13:08 48.46395 4.80007 32816 ft 437 kts 127°
2026-05-05 13:08 48.42868 4.87369 32824 ft 437 kts 127°
2026-05-05 13:09 48.39310 4.94776 32830 ft 437 kts 127°
2026-05-05 13:09 48.35758 5.02155 32823 ft 437 kts 127°
2026-05-05 13:10 48.32196 5.09531 32827 ft 438 kts 127°
2026-05-05 13:10 48.28574 5.16861 32824 ft 437 kts 130°
2026-05-05 13:11 48.24803 5.23971 32826 ft 438 kts 130°
2026-05-05 13:11 48.21020 5.31105 32832 ft 438 kts 130°
2026-05-05 13:12 48.17223 5.38238 32826 ft 438 kts 130°
2026-05-05 13:12 48.13442 5.45323 32828 ft 439 kts 130°
2026-05-05 13:13 48.09634 5.52439 32830 ft 439 kts 130°
2026-05-05 13:13 48.05820 5.59545 32833 ft 439 kts 130°
2026-05-05 13:14 48.01987 5.66669 32843 ft 439 kts 130°
2026-05-05 13:14 47.98181 5.73721 32834 ft 439 kts 131°
2026-05-05 13:15 47.94585 5.81052 32840 ft 441 kts 124°
2026-05-05 13:15 47.91634 5.89112 32842 ft 444 kts 117°
2026-05-05 13:16 47.89442 5.97701 32852 ft 448 kts 110°
2026-05-05 13:16 47.87923 6.06706 32854 ft 449 kts 106°
2026-05-05 13:17 47.86518 6.15733 32813 ft 450 kts 106°
2026-05-05 13:17 47.85814 6.20239 32560 ft 449 kts 106°
2026-05-05 13:17 47.85110 6.24718 32320 ft 446 kts 106°
2026-05-05 13:18 47.84404 6.29193 32081 ft 443 kts 106°
2026-05-05 13:18 47.83701 6.33645 31827 ft 440 kts 106°
2026-05-05 13:18 47.83003 6.38041 31584 ft 439 kts 106°
2026-05-05 13:18 47.82302 6.42444 31250 ft 439 kts 106°
2026-05-05 13:19 47.81596 6.46859 30703 ft 438 kts 106°
2026-05-05 13:19 47.80895 6.51236 29956 ft 438 kts 106°
2026-05-05 13:19 47.80191 6.55620 29119 ft 439 kts 106°
2026-05-05 13:19 47.79480 6.60047 28188 ft 442 kts 106°
2026-05-05 13:20 47.78767 6.64456 27236 ft 444 kts 105°
2026-05-05 13:20 47.78048 6.68897 26276 ft 446 kts 106°
2026-05-05 13:20 47.77327 6.73331 25273 ft 449 kts 106°
2026-05-05 13:20 47.76596 6.77824 24192 ft 453 kts 106°
2026-05-05 13:21 47.75855 6.82364 23142 ft 456 kts 106°
2026-05-05 13:21 47.75109 6.86939 22474 ft 454 kts 106°
2026-05-05 13:21 47.74375 6.91421 21820 ft 450 kts 106°
2026-05-05 13:21 47.73634 6.95943 21154 ft 445 kts 106°
2026-05-05 13:22 47.72908 7.00350 20493 ft 441 kts 106°
2026-05-05 13:22 47.72185 7.04729 19825 ft 436 kts 106°
2026-05-05 13:22 47.71472 7.09031 19164 ft 432 kts 106°
2026-05-05 13:22 47.70758 7.13320 18499 ft 428 kts 106°
2026-05-05 13:23 47.70045 7.17590 17840 ft 425 kts 107°
2026-05-05 13:23 47.69239 7.21782 17170 ft 421 kts 110°
2026-05-05 13:23 47.68384 7.25863 16506 ft 418 kts 110°
2026-05-05 13:23 47.67515 7.29976 15833 ft 415 kts 110°
2026-05-05 13:24 47.66661 7.33997 15176 ft 412 kts 110°
2026-05-05 13:24 47.65806 7.38030 14512 ft 409 kts 110°
2026-05-05 13:24 47.64955 7.42032 14018 ft 400 kts 110°
2026-05-05 13:24 47.64136 7.45884 13614 ft 390 kts 110°
2026-05-05 13:25 47.63335 7.49640 13332 ft 377 kts 110°
2026-05-05 13:25 47.62514 7.53305 13051 ft 365 kts 111°
2026-05-05 13:25 47.61693 7.56797 12799 ft 354 kts 111°
2026-05-05 13:25 47.60897 7.60165 12580 ft 343 kts 111°
2026-05-05 13:26 47.60124 7.63435 12319 ft 335 kts 111°
2026-05-05 13:26 47.59370 7.66639 12125 ft 324 kts 112°
2026-05-05 13:26 47.58644 7.69731 11993 ft 311 kts 112°
2026-05-05 13:26 47.57946 7.72700 11884 ft 300 kts 112°
2026-05-05 13:27 47.57278 7.75539 11632 ft 296 kts 112°
2026-05-05 13:27 47.56593 7.78439 11206 ft 297 kts 112°
2026-05-05 13:27 47.55921 7.81284 10815 ft 296 kts 111°
2026-05-05 13:27 47.55244 7.84148 10418 ft 296 kts 111°
2026-05-05 13:28 47.54563 7.87025 10017 ft 295 kts 111°
2026-05-05 13:28 47.53886 7.89885 9647 ft 292 kts 111°
2026-05-05 13:28 47.53225 7.92675 9295 ft 289 kts 111°
2026-05-05 13:28 47.52568 7.95448 8950 ft 287 kts 111°
2026-05-05 13:29 47.51902 7.98257 8558 ft 286 kts 111°
2026-05-05 13:29 47.51242 8.01023 8197 ft 285 kts 110°
2026-05-05 13:29 47.50909 8.03862 7796 ft 287 kts 85°
2026-05-05 13:29 47.51546 8.06609 7438 ft 285 kts 57°
2026-05-05 13:30 47.52688 8.08983 7109 ft 283 kts 53°
2026-05-05 13:30 47.53848 8.11338 6759 ft 281 kts 54°
2026-05-05 13:30 47.54969 8.13656 6435 ft 279 kts 54°
2026-05-05 13:30 47.56082 8.16004 6218 ft 272 kts 55°
2026-05-05 13:31 47.57130 8.18237 6137 ft 260 kts 55°
2026-05-05 13:31 47.58134 8.20385 6055 ft 248 kts 56°
2026-05-05 13:31 47.59084 8.22444 5988 ft 236 kts 58°
2026-05-05 13:31 47.59889 8.24545 5969 ft 238 kts 64°
2026-05-05 13:32 47.60606 8.26813 5533 ft 245 kts 65°
2026-05-05 13:32 47.61297 8.29097 5295 ft 241 kts 65°
2026-05-05 13:32 47.61969 8.31332 5058 ft 237 kts 68°
2026-05-05 13:32 47.62257 8.33685 4772 ft 233 kts 102°
2026-05-05 13:33 47.61539 8.35742 4490 ft 226 kts 135°
2026-05-05 13:33 47.60386 8.37283 4265 ft 221 kts 141°
2026-05-05 13:33 47.59229 8.38702 4163 ft 212 kts 141°
2026-05-05 13:33 47.58120 8.40126 3956 ft 209 kts 140°
2026-05-05 13:34 47.57049 8.41563 3683 ft 209 kts 139°
2026-05-05 13:34 47.55987 8.43011 3429 ft 207 kts 138°
2026-05-05 13:34 47.54950 8.44430 3218 ft 199 kts 138°
2026-05-05 13:34 47.53970 8.45767 2921 ft 186 kts 138°
2026-05-05 13:35 47.53051 8.47019 2672 ft 173 kts 139°
2026-05-05 13:35 47.52211 8.48162 2442 ft 158 kts 139°
2026-05-05 13:35 47.51436 8.49218 2224 ft 145 kts 139°
2026-05-05 13:35 47.50718 8.50195 2045 ft 140 kts 139°
2026-05-05 13:36 47.50000 8.51171 1877 ft 139 kts 138°
2026-05-05 13:36 47.49291 8.52137 1707 ft 140 kts 138°
2026-05-05 13:36 47.48568 8.53116 1522 ft 139 kts 137°
2026-05-05 13:36 47.47875 8.54069 1399 ft 134 kts 137°
2026-05-05 13:37 47.47256 8.54910 1384 ft 99 kts 138°
2026-05-05 13:37 47.46852 8.55455 1384 ft 51 kts 139°
2026-05-05 13:37 47.46648 8.55656 1388 ft 11 kts 162°
2026-05-05 13:37 47.46634 8.55662 1388 ft 3 kts 162°
2026-05-05 13:38 47.46592 8.55680 1388 ft 8 kts 165°
2026-05-05 13:38 47.46521 8.55705 1388 ft 14 kts 167°
2026-05-05 13:38 47.46419 8.55737 1389 ft 15 kts 166°
2026-05-05 13:38 47.46335 8.55820 1391 ft 14 kts 134°
2026-05-05 13:39 47.46262 8.55893 1393 ft 11 kts 169°
2026-05-05 13:39 47.46234 8.55802 1392 ft 12 kts 274°
2026-05-05 13:39 47.46244 8.55649 1389 ft 16 kts 275°
2026-05-05 13:39 47.46256 8.55477 1388 ft 17 kts 276°
2026-05-05 13:40 47.46270 8.55291 1386 ft 19 kts 276°
2026-05-05 13:40 47.46284 8.55090 1384 ft 19 kts 275°
2026-05-05 13:40 47.46301 8.54910 1383 ft 16 kts 294°
2026-05-05 13:40 47.46348 8.54908 1383 ft 7 kts 60°
2026-05-05 13:41 47.46385 8.54946 1383 ft 6 kts 26°
2026-05-05 13:41 47.46393 8.54994 1384 ft 4 kts 179°
2026-05-05 13:41 47.46368 8.54967 1384 ft 0 kts 247°